STARLINK-34596, 64732

Orbit data source: Space-Track

STARLINK-34596, 64732 is a payload satellite owned by SpaceX/Seattle (US) in LEO that was launched on Wed, 02 Jul 2025 UTC via an FALCON 9 launch vehicle from the Air Force Eastern Test Range (AFETR). Payload-class satellites include a variety of spacecraft equipped with specific instruments for various scientific and technological missions. These include communications satellites like Starlink; space stations such as the ISS; scientific satellites like the Hubble; Earth observation satellites from companies like Planet Labs, Umbra, and HawkEye 360; GPS; miniature CubeSats for education and research; and military/defense satellites.

Loading next visibility...
Identifier
64732, 2025-144J
Orbit
LEO
Country
Flag of USUS
Related business
Manufacturer
SpaceX/Seattle
Mission
Operational Commercial Communications
Bus & Motor
STARLINK V2MO, Unknown motor
Mass
575 kg wet, ~530 kg dry
Launch date (UTC)
2025-07-02 (1 year ago)
Launch vehicle
FALCON 9
Launch site
Air Force Eastern Test Range (AFETR)
Object type
Payload
Rocket body
Debris
Shape & HBR
Box + 2 Pan, 17.7 m
Radar Cross Section
36.964 m², Large (>1 m²)

Expand to show TLE details & history
Last TLE update: 10 hours ago

TLE from 10 hours ago
0 STARLINK-34596
1 64732U 25144J   26171.41668980 -.00014340  00000-0 -41432-3 0  9998
2 64732  53.1605  63.8469 0001389  74.0870 169.0888 15.34381207  5893
Epoch: 2026-06-20T10:00Z
TLE epoch observation values (Epoch: 2026-06-20T10:00:01.998Z)
Latitude
-45.76837°
Longitude
-124.8605°
Altitude
479.234 km
Speed
7.625 km/s
True Right ascension
19h 35m 07s
True Declination
-45° 35' 22"
Sunlit
Object was in full shadow at epoch
Visualization orbit readout
Latitude
Unknown
Longitude
Unknown
Altitude
Unknown
Speed
Unknown
Apparent Right ascension
Unknown
Apparent Declination
Unknown
Sunlit
N/A
Visualization observer readout
Local Sidereal Time
07:21:26
Azimuth
Unknown
Elevation
Unknown
Doppler factor
Unknown
Orbital elements
Apogee altitude
463.966 km
Perigee altitude
462.066 km
Semi-major axis
6,841.153 km
Eccentricity
0.00014
Inclination
53.1605°
RAAN
63.8469°
Arg. of periapsis
74.087°
True anomaly
169.09181°
Mean anomaly
169.0888°
Eccentric anomaly
169.09031°
Mean motion
3.83574 °/min
Orbital period
93.85 mins
BSTAR
-0.00041432
Loading maneuver chart data...
Computing Atmospheric mass density...
Loading historical data...
Loading historical data...
Loading historical data...
Loading historical data...
Loading historical data...
Loading historical data...
Loading historical data...

Documentation

Showing up to 5 results
|